Regional Weather Roundup
Issued by NWS Goodland, KS

Home | Current Version | Previous Version | Graphics & Text | Print | Product List | Glossary On
Versions: 1 2 3 4 5 6 7 8 9 10 11 12 13 14 15 16 17 18 19 20 21 22 23 24 25 26 27 28 29 30 31 32 33 34 35 36 37 38 39 40 41 42 43 44 45 46 47 48 49 50
000
ASUS43 KGLD 292159
RWRGLD

GOODLAND FORECAST AREA HOURLY WEATHER ROUNDUP
NATIONAL WEATHER SERVICE GOODLAND KS
400 PM MDT FRI AUG 29 2014

...OFFICIAL OBSERVATIONS...

CITY           SKY/WX    TMP DP  RH WIND       PRES   REMARKS
GOODLAND KS    SUNNY     84  44  24 N14G23    29.97R
HILL CITY KS   SUNNY     86  52  30 N10G18    29.87R
IMPERIAL NEB   SUNNY     84  53  34 N14G22    29.93S
MCCOOK NEB     SUNNY     87  54  32 N8        29.88S
AKRON CO       SUNNY     79  48  33 NW3       30.03S
BURLINGTON CO  MOSUNNY   84  46  26 N12       30.00S
LIMON CO       SUNNY     80  42  25 NW10      30.08F
$$

...UNOFFICIAL OBSERVATIONS...

CITY           SKY/WX    TMP DP  RH WIND       PRES   REMARKS
COLBY KS       SUNNY     84  54  34 N12G17    29.93S
GOVE KS          N/A     86  32  14 CALM        N/A
NORTON KS      SUNNY     88  45  22 N10       29.85S
SHARON SPRINGS   N/A     85  53  32 NE12G20     N/A
WAKEENEY KS      N/A     86  49  27 MISG        N/A
KIT CARSON CO    N/A     84  45  25 N5          N/A
YUMA CO          N/A     82  46  27 N7          N/A
$$


USA.gov is the U.S. government's official web portal to all federal, state and local government web resources and services.